BEIDOU-3 M14 (C33)

Last updated on Mon Jun 22 2026 00:03:31 GMT+0000 (Coordinated Universal Time)

1 43623U 18072B 26172.15997682 -.00000080 00000+0 00000+0 0 9998 2 43623 56.6300 62.5228 0006120 1.7619 358.2786 1.86231110 52726
UTC large
Height (km)
Speed (km/s)
/
Latitude / Longitude
Inclination (degrees)
Orbital Period (minutes)
Azimuth
Elevation
Range (km)
Doppler Factor

Next 0 passes for location: London (51.5072 / 0.1276)

No passes found over London.
BEIDOU-3 M14 (C33)